Torna al catalogo

BREEZE-M R/B

AttivoHEO
NORAD 36587·ROCKET BODY·🇷🇺 Russia

Lanciato Dec 29, 2009 da Baikonur Cosmodrome

Loading…

Prossimi Passaggi (prossime 24 ore)

TLE

AggiornatoSource: Space-Track

Epoca: Sep 14, 2026, 03:50 UTC

1 36587U 09075B   26257.16002096 -.00000190  00000-0  00000-0 0  9997
2 36587  21.4982 304.2037 5764629 127.9030 330.7622  1.99403210118885

Traccia BREEZE-M R/B in tempo reale con AllMySat

Download on the App Store